Regional Weather Roundup
Issued by NWS Grand Forks, ND

Home | Current Version | Previous Version | Text Only | Print | Product List | Glossary Off
Versions: 1 2 3 4 5 6 7 8 9 10 11 12 13 14 15 16 17 18 19 20 21 22 23 24 25 26 27 28 29 30 31 32 33 34 35 36 37 38 39 40 41 42 43 44 45 46 47 48 49 50

000
ASUS43 KFGF 300010
RWRFGF
PRAIRIE TO PINES  WEATHER ROUNDUP
NATIONAL WEATHER SERVICE EASTERN NORTH DAKOTA/GRAND FORKS ND
700 PM CDT SUN MAY 29 2016

 **SATELLITE DATA USED TO AUGMENT SKY COVER AT AUTOMATED STATIONS**
 *****  WEATHER ACROSS EASTERN NORTH DAKOTA  *****

CITY           SKY/WX    TMP DP  RH WIND       PRES   REMARKS
GRAND FORKS    MOSUNNY   75  49  39 NW13      29.89F
6HR MIN TEMP:  70; 6HR MAX TEMP:  77;

GRAND FRKS AFB SUNNY     74  44  33 NW12      29.90F
GRAND FRKS NWS   N/A     73 N/A N/A NW5         N/A
DEVILS LAKE    SUNNY     73  39  29 W13       29.93F
6HR MIN TEMP:  70; 6HR MAX TEMP:  74;

FARGO          SUNNY     78  42  27 NW14      29.91F
WAHPETON ARPT  CLEAR     77  36  22 NW14      29.94S
$$

 ***** WEATHER ACROSS CENTRAL AND WESTERN NORTH DAKOTA  *****

CITY           SKY/WX    TMP DP  RH WIND       PRES   REMARKS
BISMARCK       MOSUNNY   77  44  30 NW8G18    29.93F
6HR MIN TEMP:  74; 6HR MAX TEMP:  80;

MINOT          SUNNY     77  38  24 W9        29.92F
6HR MIN TEMP:  75; 6HR MAX TEMP:  79;

JAMESTOWN      SUNNY     74  43  32 NW13      29.94S
6HR MIN TEMP:  71; 6HR MAX TEMP:  76;

MINOT AFB      SUNNY     73  40  29 W10       29.91S
GARRISON         N/A     76  41  28 NW13      29.93F
WILLISTON      SUNNY     77  34  21 W9        29.92F
6HR MIN TEMP:  72; 6HR MAX TEMP:  79;

DICKINSON      SUNNY     74  31  20 NW9       29.93S
6HR MIN TEMP:  69; 6HR MAX TEMP:  78;

HETTINGER      PTSUNNY   74  46  36 SE5       29.97S
6HR MIN TEMP:  65; 6HR MAX TEMP:  77; 6HR PCP:  0.02;

$$

 *****  OTHER AIRPORT OBSERVATIONS IN OUR AREA  *****

CITY           SKY/WX    TMP DP  RH WIND       PRES   REMARKS
WALHALLA       FAIR      72  68  88 W13G18    29.89F
GRAFTON AIRPOR FAIR      73  50  43 W8        29.91F
VALLEY CITY AR FAIR      73  41  31 W15       29.96S
CANDO          FAIR      73  37  27 W14       29.94S
CAVALIER APRT  FAIR      72  52  49 NW8       29.89F
GWINNER        FAIR      77  45  31 W10       29.95S
SHEYENNE NWR     N/A     78  41  26 NW10      29.95
ROLLA          FAIR      70  37  30 NW13      29.94S
 ***** THE ABOVE OBSERVATIONS ARE NON NWS ARE NOT QUALITY
       CONTROLLED AND MAY MIS-REPORT RAIN FOR SNOW...
$$

  *****  WEATHER ACROSS NORTHERN MINNESOTA  *****

CITY           SKY/WX    TMP DP  RH WIND       PRES   REMARKS
FLAG ISLAND    PTSUNNY   64  55  72 NW8       29.86S HAZE
WARROAD        SUNNY     70  55  60 W10G16    29.88S
ROSEAU         SUNNY     70  54  56 NW10G18   29.89S
HALLOCK        SUNNY     72  46  40 NW14      29.88F
THF RVR FALLS  SUNNY     70  52  52 NW13      29.92F
6HR MIN TEMP:  63; 6HR MAX TEMP:  72;

BAUDETTE       MOSUNNY   67  54  63 NW12      29.87F
6HR MIN TEMP:  57; 6HR MAX TEMP:  69; 6HR PCP: TRACE;

WASKISH        MOSUNNY   66  55  68 W13       29.89F
CROOKSTON      SUNNY     73  48  40 NW12      29.91S
STEPHEN NDAWN    N/A     72  54  53 W7          N/A
GREENBUSH NDAW   N/A     68  52  56 W10         N/A
$$
  *****  WEATHER ACROSS CENTRAL AND WEST MINNESOTA  *****

CITY           SKY/WX    TMP DP  RH WIND       PRES   REMARKS
FOSSTON        SUNNY     70  50  49 W7        29.93F
BEMIDJI        SUNNY     67  48  49 W14       29.92S
PARK RAPIDS    CLOUDY    70  52  52 NW9       29.94S
6HR MIN TEMP:  66; 6HR MAX TEMP:  73;

ELBOW LAKE     FAIR      74  47  38 W12       29.95F
6HR MIN TEMP:  63; 6HR MAX TEMP:  76; 6HR PCP:  0.01;

WADENA         MOSUNNY   72  52  49 NW13      29.94F
DETROIT LAKES  SUNNY     72  48  43 NW12      29.95S
MOORHEAD       SUNNY     75  46  35 NW8       29.93S
FERGUS FALLS   SUNNY     75  45  33 W14G23    29.90F
MORRIS MN      SUNNY     75  45  33 NW21G28   29.94F
STAPLES        MOSUNNY   70  52  52 NW10G16   29.94S
$$
  *****  WEATHER ELSEWHERE ACROSS MINNESOTA  *****

CITY           SKY/WX    TMP DP  RH WIND       PRES   REMARKS
DULUTH         MOSUNNY   68  52  56 NW14      29.89F
6HR MIN TEMP:  62; 6HR MAX TEMP:  70; 6HR PCP: TRACE;

INTRNTL FALLS  PTSUNNY   65  54  67 NW7       29.87S
6HR MIN TEMP:  60; 6HR MAX TEMP:  68;

ELY            PTSUNNY   63  54  72 W8        29.88S
CLOQUET        SUNNY     70  50  49 NW13G21   29.91S
WHEATON        SUNNY     79  46  31 NW14G20   29.95F
BRAINERD       PTSUNNY   71  51  49 NW14      29.94R
6HR MIN TEMP:  66; 6HR MAX TEMP:  74;

HIBBING        SUNNY     66  51  58 W12       29.89F
6HR MIN TEMP:  60; 6HR MAX TEMP:  67; 6HR PCP: TRACE;

ALEXANDRIA     SUNNY     73  47  39 NW13      29.96F
6HR MIN TEMP:  66; 6HR MAX TEMP:  75; 6HR PCP: TRACE;

SAINT CLOUD    SUNNY     74  53  48 NW10      29.93F
6HR MIN TEMP:  71; 6HR MAX TEMP:  78; 6HR PCP: TRACE;

MINNEAPOLIS    CLOUDY    77  54  44 W12       29.92F
6HR MIN TEMP:  71; 6HR MAX TEMP:  79; 6HR PCP: TRACE;

$$

  *****  WEATHER ACROSS SOUTH DAKOTA  *****

CITY           SKY/WX    TMP DP  RH WIND       PRES   REMARKS
SIOUX FALLS    SUNNY     77  48  35 NW6       29.99F
6HR MIN TEMP:  74; 6HR MAX TEMP:  79;

BROOKINGS      SUNNY     75  49  39 NW12      30.00S
WATERTOWN      SUNNY     76  45  33 NW9       29.98F
6HR MIN TEMP:  74; 6HR MAX TEMP:  78;

HURON          SUNNY     77  50  38 VRB3      29.97F
6HR MIN TEMP:  74; 6HR MAX TEMP:  80;

SISSETON         N/A     79  41  25 NW14      29.94S
ABERDEEN       SUNNY     79  45  29 W7        29.97S
6HR MIN TEMP:  77; 6HR MAX TEMP:  81;

MITCHELL       SUNNY     78  52  40 SE5       29.99F
PIERRE         SUNNY     75  54  47 SE12      29.95F
6HR MIN TEMP:  73; 6HR MAX TEMP:  78;

MOBRIDGE       CLOUDY    65  55  70 SE9       29.97F
RAPID CITY     SUNNY     74  51  44 E9        29.97F
6HR MIN TEMP:  66; 6HR MAX TEMP:  75; 6HR PCP:  0.03;

$$

  *****  SOME WEATHER IN NEARBY STATES *****

CITY           SKY/WX    TMP DP  RH WIND       PRES   REMARKS
GLASGOW MT     SUNNY     74  37  26 W12       29.90F
6HR MIN TEMP:  68; 6HR MAX TEMP:  75;

GREAT FALLS MT CLOUDY    66  37  34 SW12      29.94S
6HR MIN TEMP:  66; 6HR MAX TEMP:  72;

CHEYENNE WY    CLOUDY    65  38  36 NE8       30.13S
6HR MIN TEMP:  62; 6HR MAX TEMP:  73;

SCOTTSBLUFF NE CLOUDY    74  41  30 SW12      30.01F
6HR MIN TEMP:  74; 6HR MAX TEMP:  80;

OMAHA NE       MOSUNNY   85  57  38 NE5       29.97F
6HR MIN TEMP:  78; 6HR MAX TEMP:  87;

DES MOINES IA  MOSUNNY   82  52  35 W6        29.99F
6HR MIN TEMP:  78; 6HR MAX TEMP:  84;

DAVENPORT IA   SUNNY     80  54  40 W12       30.00F
6HR MIN TEMP:  76; 6HR MAX TEMP:  81;

CHICAGO IL     MOSUNNY   78  56  46 W12G23    29.97S
6HR MIN TEMP:  75; 6HR MAX TEMP:  79;

EAU CLAIRE WI  SUNNY     75  55  49 W13G18    29.92S
6HR MIN TEMP:  66; 6HR MAX TEMP:  76; 6HR PCP:  0.05;

LA CROSSE WI   CLOUDY    74  61  63 W7        29.94R
6HR MIN TEMP:  73; 6HR MAX TEMP:  82; 6HR PCP:  0.04;

$$

  *****  SOME NATIONAL WEATHER *****

CITY           SKY/WX    TMP DP  RH WIND       PRES   REMARKS
LA GUARDIA NY  MOCLDY    74  71  91 S17       30.06R
6HR MIN TEMP:  74; 6HR MAX TEMP:  86;

RALEIGH NC     CLOUDY    70  68  93 SW12      30.04R
6HR MIN TEMP:  68; 6HR MAX TEMP:  76; 6HR PCP:  1.04;

ATLANTA GA     PTCLDY    85  59  41 NW10      30.03R
6HR MIN TEMP:  85; 6HR MAX TEMP:  90;

NEW ORLEANS LA PTSUNNY   87  65  47 N3        30.02F
6HR MIN TEMP:  86; 6HR MAX TEMP:  90;

OKLAHOMA CITY  PTSUNNY   81  63  54 SE10      30.03R
6HR MIN TEMP:  81; 6HR MAX TEMP:  89;

ALBUQUERQUE NM MOSUNNY   84  15   7 S17       30.02F
6HR MIN TEMP:  80; 6HR MAX TEMP:  86;

SALT LAKE CITY PTSUNNY   79  34  19 CALM      29.97F
6HR MIN TEMP:  74; 6HR MAX TEMP:  80;

LOS ANGELES CA MOSUNNY  C1F1C2F2C3F3C4F4C5F5C6F6C7F7C8F8C9F9CaFaCbFbCcFcCd!



USA.gov is the U.S. government's official web portal to all federal, state and local government web resources and services.